Waarnemingen

Advertentie
Mijn weer
Pontevedra, Spanje (8044): temperatuur & dauwpunt: 06.07.2020 16:00:00 - 12.07.2020 16:00:00 (CEST)Pontevedra, Spanje (8044): windsnelheid: 06.07.2020 16:00:00 - 12.07.2020 16:00:00 (CEST)Pontevedra, Spanje (8044): windrichting: 06.07.2020 16:00:00 - 12.07.2020 16:00:00 (CEST)Pontevedra, Spanje (8044): luchtdruk: 06.07.2020 16:00:00 - 12.07.2020 16:00:00 (CEST)Pontevedra, Spanje (8044): zicht: 06.07.2020 16:00:00 - 12.07.2020 16:00:00 (CEST)Pontevedra, Spanje (8044): neerslag: 06.07.2020 16:00:00 - 12.07.2020 16:00:00 (CEST)
Datum & Tijd tt [°C] td [°C] ff [km/u] ff [kn] dd ppp [hPa] vv [km] rr [mm]
12.07.2020 16:00:00 - - - - - - - -
12.07.2020 15:00:00 29,3 16,8 11 6 ZW 1015,5 20 0,0
12.07.2020 14:00:00 30,2 16,2 13 7 ZW 1015,2 20 -
12.07.2020 13:00:00 30,4 15,7 9 5 W 1014,9 20 0,0
12.07.2020 12:00:00 27,9 17,4 5 3 W 1014,8 20 0,0
12.07.2020 11:00:00 25,4 17,3 4 2 W 1014,9 20 -
12.07.2020 10:00:00 22,6 16,6 4 2 NW 1014,7 20 0,0
12.07.2020 09:00:00 19,4 15,7 4 2 NW 1014,7 20 0,0
12.07.2020 08:00:00 17,9 15,0 4 2 ZZO 1014,1 20 -
12.07.2020 07:00:00 18,3 15,0 4 2 N 1013,7 20 0,0
12.07.2020 06:00:00 18,9 15,4 4 2 WNW 1013,1 20 0,0
12.07.2020 05:00:00 20,1 15,7 8 4 OZO 1012,3 20 -
12.07.2020 04:00:00 20,5 16,3 4 2 OZO 1012,2 19 0,0
12.07.2020 03:00:00 21,1 16,3 5 3 NO 1012,3 20 0,0
12.07.2020 02:00:00 22,0 16,0 2 1 NW 1012,6 19 -
12.07.2020 01:00:00 23,1 16,2 4 2 NNO 1012,4 20 0,0
12.07.2020 00:00:00 24,3 16,6 4 2 ZZW 1012,7 20 0,0
11.07.2020 23:00:00 26,3 17,1 4 2 N 1012,0 20 -
11.07.2020 22:00:00 28,1 17,3 9 5 N 1011,4 20 0,0
11.07.2020 21:00:00 31,5 18,5 9 5 NNW 1010,7 20 0,0
11.07.2020 20:00:00 32,4 18,2 13 7 NW 1010,8 20 -
11.07.2020 19:00:00 32,9 18,7 13 7 NW 1010,9 20 0,0
11.07.2020 18:00:00 33,3 18,6 18 10 W 1011,1 20 0,0
11.07.2020 17:00:00 33,2 18,6 18 10 W 1011,2 20 -
11.07.2020 16:00:00 32,1 17,9 18 10 WNW 1011,6 20 0,0
11.07.2020 15:00:00 31,6 17,9 16 9 WNW 1012,3 20 0,0
11.07.2020 14:00:00 30,5 17,6 11 6 WNW 1012,7 20 -
11.07.2020 13:00:00 28,6 17,2 13 7 WNW 1013,3 12 0,0
11.07.2020 12:00:00 25,9 16,2 11 6 WNW 1013,6 9 0,0
11.07.2020 11:00:00 23,7 15,2 9 5 WNW 1013,9 20 -
11.07.2020 10:00:00 21,5 14,2 5 3 WNW 1014,2 20 0,0
11.07.2020 09:00:00 18,4 13,0 5 3 NW 1014,5 20 0,0
11.07.2020 08:00:00 17,5 12,0 8 4 NNO 1014,5 20 -
11.07.2020 07:00:00 17,3 11,8 9 5 NNO 1014,5 20 0,0
11.07.2020 06:00:00 17,4 11,4 5 3 N 1014,5 20 0,0
11.07.2020 05:00:00 17,4 11,2 8 4 NNO 1014,6 20 -
11.07.2020 04:00:00 17,4 11,4 9 5 N 1014,8 20 0,0
11.07.2020 03:00:00 17,5 11,5 15 8 N 1015,4 20 0,0
11.07.2020 02:00:00 17,6 11,4 13 7 NNW 1016,0 20 -
11.07.2020 01:00:00 17,9 11,5 15 8 N 1016,4 20 0,0
11.07.2020 00:00:00 18,2 11,3 15 8 NNO 1016,5 20 0,0
10.07.2020 23:00:00 19,1 11,1 16 9 N 1016,5 20 -
10.07.2020 22:00:00 21,1 11,4 16 9 N 1015,9 20 0,0
10.07.2020 21:00:00 24,1 11,8 15 8 NNO 1015,4 20 0,0
10.07.2020 20:00:00 26,7 13,8 15 8 N 1015,1 20 -
10.07.2020 19:00:00 27,6 13,5 21 11 NNW 1015,0 20 0,0
10.07.2020 18:00:00 28,4 15,0 21 11 NNW 1014,8 20 0,0
10.07.2020 17:00:00 29,2 14,2 11 6 N 1015,1 20 -
10.07.2020 16:00:00 28,4 13,9 16 9 NNW 1015,5 20 0,0
10.07.2020 15:00:00 27,3 14,3 16 9 NNW 1016,1 20 0,0
10.07.2020 14:00:00 26,2 14,0 16 9 NNW 1016,7 20 -
10.07.2020 13:00:00 25,1 14,2 15 8 NNW 1017,0 20 0,0
10.07.2020 12:00:00 23,2 13,7 15 8 N 1017,4 20 0,0
10.07.2020 11:00:00 21,2 13,4 15 8 N 1017,7 20 -
10.07.2020 10:00:00 19,7 13,2 13 7 NNO 1018,1 20 0,0
10.07.2020 09:00:00 17,8 13,1 9 5 NNO 1017,9 20 0,0
10.07.2020 08:00:00 16,4 13,1 9 5 N 1018,3 20 -
10.07.2020 07:00:00 16,0 12,7 5 3 NNW 1017,9 20 0,0
10.07.2020 06:00:00 16,2 12,7 8 4 N 1017,3 18 0,0
10.07.2020 05:00:00 15,9 13,0 5 3 NW 1017,7 20 -
10.07.2020 04:00:00 16,0 13,1 8 4 NNW 1017,8 20 0,0
10.07.2020 03:00:00 16,5 13,4 9 5 NNW 1018,0 20 0,0
10.07.2020 02:00:00 16,8 13,3 8 4 NNW 1018,9 20 -
10.07.2020 01:00:00 17,4 13,5 15 8 NNW 1019,1 20 0,0
10.07.2020 00:00:00 19,5 12,3 8 4 NNW 1018,7 20 0,0
09.07.2020 23:00:00 20,8 8,8 4 2 NNW 1018,0 19 -
09.07.2020 22:00:00 22,8 9,6 9 5 NNW 1017,5 20 0,0
09.07.2020 21:00:00 25,4 10,8 11 6 NW 1016,9 20 0,0
09.07.2020 20:00:00 26,9 11,0 16 9 NNW 1016,3 20 -
09.07.2020 19:00:00 28,4 13,5 16 9 NNW 1016,0 20 0,0
09.07.2020 18:00:00 29,5 14,9 18 10 NW 1016,1 20 0,0
09.07.2020 17:00:00 30,3 14,8 18 10 NW 1016,2 20 -
09.07.2020 16:00:00 30,2 14,3 16 9 NW 1016,3 20 0,0
09.07.2020 15:00:00 30,0 12,4 13 7 NNW 1016,6 20 0,0
09.07.2020 14:00:00 28,8 12,7 13 7 NNW 1016,7 20 -
09.07.2020 13:00:00 27,1 15,8 11 6 NW 1016,8 20 0,0
09.07.2020 12:00:00 24,2 15,1 15 8 WNW 1016,9 9 0,0
09.07.2020 11:00:00 22,9 15,2 11 6 WNW 1017,0 20 -
09.07.2020 10:00:00 20,5 14,6 8 4 WNW 1016,9 - 0,0
09.07.2020 09:00:00 18,5 14,6 8 4 N 1016,5 10 0,0
09.07.2020 08:00:00 16,6 13,5 5 3 NW 1016,2 20 -
09.07.2020 07:00:00 16,5 13,4 5 3 N 1015,8 19 0,0
09.07.2020 06:00:00 16,7 13,6 9 5 WNW 1015,4 12 0,0
09.07.2020 05:00:00 17,7 14,4 2 1 ZW 1014,9 19 -
09.07.2020 04:00:00 18,9 14,8 4 2 N 1014,6 14 0,0
09.07.2020 03:00:00 19,0 14,7 8 4 NW 1014,6 20 0,0
09.07.2020 02:00:00 20,4 15,2 9 5 N 1014,6 20 -
09.07.2020 01:00:00 21,0 15,3 11 6 NNW 1014,4 19 0,0
09.07.2020 00:00:00 21,5 15,8 8 4 N 1014,2 20 0,0
08.07.2020 23:00:00 22,4 16,4 4 2 NNW 1012,9 19 -
08.07.2020 22:00:00 23,3 16,3 11 6 NNO 1012,4 20 0,0
08.07.2020 21:00:00 24,6 16,6 11 6 N 1012,4 20 0,0
08.07.2020 20:00:00 22,7 16,5 5 3 Z 1011,7 18 -
08.07.2020 19:00:00 22,4 16,7 9 5 ZZW 1012,0 20 0,0
08.07.2020 18:00:00 22,5 16,3 13 7 ZZW 1012,4 20 0,0
08.07.2020 17:00:00 22,5 16,1 15 8 ZZW 1012,7 20 -
08.07.2020 16:00:00 22,8 16,6 9 5 ZZW 1012,7 20 0,0
08.07.2020 15:00:00 20,9 15,9 16 9 ZW 1012,9 20 0,0
08.07.2020 14:00:00 21,9 16,8 13 7 ZW 1013,0 20 -
08.07.2020 13:00:00 21,7 16,9 11 6 ZZW 1012,9 20 0,0
08.07.2020 12:00:00 20,4 16,2 8 4 ZZW 1013,0 20 0,0
08.07.2020 11:00:00 18,8 15,8 5 3 ZZW 1012,8 15 -
08.07.2020 10:00:00 17,3 16,2 4 2 ZW 1012,6 17 0,0
08.07.2020 09:00:00 15,8 15,2 2 1 ZZW 1012,7 2,3 0,0
08.07.2020 08:00:00 15,3 14,7 2 1 Z 1012,5 0,5 -
08.07.2020 07:00:00 15,2 14,4 5 3 Z 1012,2 0,2 0,0
08.07.2020 06:00:00 15,7 14,7 4 2 Z 1012,2 0,2 0,0
08.07.2020 05:00:00 16,3 15,0 4 2 ZZO 1012,3 6 -
08.07.2020 04:00:00 16,8 15,0 4 2 ZZO 1012,5 11 0,0
08.07.2020 03:00:00 17,7 15,1 4 2 Z 1012,8 18 0,0
08.07.2020 02:00:00 18,7 15,6 4 2 ZZO 1013,1 20 -
08.07.2020 01:00:00 19,8 15,6 4 2 ZZO 1013,0 20 0,0
08.07.2020 00:00:00 20,7 15,5 0 0 N 1012,9 20 0,0
07.07.2020 23:00:00 21,4 15,5 4 2 ZO 1012,6 20 -
07.07.2020 22:00:00 22,9 15,7 4 2 ZZO 1012,2 20 0,0
07.07.2020 21:00:00 25,5 16,4 5 3 Z 1012,0 20 0,0
07.07.2020 20:00:00 26,0 16,5 5 3 ZZW 1012,1 20 -
07.07.2020 19:00:00 25,5 16,1 9 5 ZZW 1012,5 20 0,0
07.07.2020 18:00:00 26,8 17,0 9 5 ZZW 1012,8 20 0,0
07.07.2020 17:00:00 24,6 16,6 9 5 ZZW 1013,4 20 -
07.07.2020 16:00:00 26,0 16,5 9 5 Z 1013,4 20 0,0
07.07.2020 15:00:00 27,3 17,5 8 4 ZZW 1013,5 20 0,0
07.07.2020 14:00:00 26,1 16,6 8 4 Z 1013,9 20 -
07.07.2020 13:00:00 26,9 16,8 11 6 ZW 1013,8 20 0,0
07.07.2020 12:00:00 25,7 17,1 4 2 ZW 1013,6 20 0,0
07.07.2020 11:00:00 22,7 16,3 4 2 W 1013,7 20 -
07.07.2020 10:00:00 20,6 15,8 2 1 WNW 1014,0 20 0,0
07.07.2020 09:00:00 17,4 14,7 4 2 N 1014,0 20 0,0
07.07.2020 08:00:00 15,8 13,6 4 2 NNO 1013,8 20 -
07.07.2020 07:00:00 15,5 13,2 2 1 NO 1013,7 20 0,0
07.07.2020 06:00:00 15,8 13,1 2 1 W 1013,9 20 0,0
07.07.2020 05:00:00 16,1 13,2 2 1 O 1014,0 20 -
07.07.2020 04:00:00 16,5 13,0 4 2 WNW 1014,3 20 0,0
07.07.2020 03:00:00 17,1 13,2 4 2 NW 1014,6 20 0,0
07.07.2020 02:00:00 17,6 13,3 8 4 NNW 1015,1 20 -
07.07.2020 01:00:00 18,3 13,4 5 3 NNW 1015,2 20 0,0
07.07.2020 00:00:00 19,6 13,8 5 3 NNW 1015,2 20 0,0
06.07.2020 23:00:00 22,5 14,6 8 4 NNW 1015,1 20 -
06.07.2020 22:00:00 24,8 14,9 8 4 N 1014,9 20 0,0
06.07.2020 21:00:00 27,1 15,8 11 6 N 1014,9 20 0,0
06.07.2020 20:00:00 29,3 16,5 13 7 NNW 1015,0 20 -
06.07.2020 19:00:00 30,7 17,4 11 6 NNW 1015,0 20 0,0
06.07.2020 18:00:00 31,1 18,5 15 8 NNW 1015,5 20 0,0
06.07.2020 17:00:00 30,4 17,8 15 8 N 1016,1 20 -
06.07.2020 16:00:00 30,0 17,5 21 11 NNW 1016,3 20 0,0

tt = temperatuur
td = dauwpunt
ff = windsnelheid
dd = windrichting
ppp = luchtdruk
vv = zicht
rr = neerslag

Weerstations in de omgeving